Hovedside
METAR-TAF:

METAR-TAF

Lufthavner :

Ventspils, Latvia

breddegrad: 57-21-28N, lengdegrad: 021-32-39E, høyde over havet: 6 m

Gjeldene værobservasjon

Denne rapporten ble laget for 10 minutter siden, klokken 08:20 UTC
Vind 7 kt fra Sør-sørøst
Temperatur -3°C
Luftfuktighet 100%
Trykk 1014 hPa
Sikt: 8000 m
Overskyet i en høyde av 800 ft

METAR: EVVA 220820Z AUTO 16007KT 8000 OVC008 M03/M03 Q1014

Tid: 10:30 (08:30 UTC)


TAF: fraværende

Værobservasjoner og værvarsel for over 4000 flyplasser (METAR- og TAF-rapporter).

Tilgjengelige stasjoner er representert av de røde og gule prikkene på kartet.

Hold musepekeren over prikken for å se navnet på stasjonen.

Klikk så for å se værobservasjoner og -varsler.

For å forandre kartet kan du klikke på den grønne knappen med svart kryss for å zoome inn, på den grønne knappen med strek for å zoome ut, eller på de grønne pilene for å se tilstøtende kart.


METAR-TAF: